Year,Month,Day,Hour,Minute,Value (Times are PST for temperature in C)
2012,07,14,06,59,13.60
2012,07,14,07,00,13.60
2012,07,14,07,01,13.60
2012,07,14,07,02,13.70
2012,07,14,07,03,13.70
2012,07,14,07,04,13.70
2012,07,14,07,05,13.70
2012,07,14,07,06,13.70
2012,07,14,07,07,13.70
2012,07,14,07,08,13.80
2012,07,14,07,09,13.80
2012,07,14,07,10,13.80
2012,07,14,07,11,13.90
2012,07,14,07,12,13.90
2012,07,14,07,13,14.00
2012,07,14,07,14,14.00
2012,07,14,07,15,14.10
2012,07,14,07,16,14.10
2012,07,14,07,17,14.10
2012,07,14,07,18,14.10
2012,07,14,07,19,14.20
2012,07,14,07,20,14.20
2012,07,14,07,21,14.30
2012,07,14,07,22,14.30
2012,07,14,07,23,14.30
2012,07,14,07,24,14.40
2012,07,14,07,25,14.40
2012,07,14,07,26,14.50
2012,07,14,07,27,14.50
2012,07,14,07,28,14.50
2012,07,14,07,29,14.60
2012,07,14,07,30,14.60
2012,07,14,07,31,14.60
2012,07,14,07,32,14.60
2012,07,14,07,33,14.70
2012,07,14,07,34,14.70
2012,07,14,07,35,14.80
2012,07,14,07,36,14.80
2012,07,14,07,37,14.80
2012,07,14,07,38,14.80
2012,07,14,07,39,14.80
2012,07,14,07,40,14.90
2012,07,14,07,41,14.90
2012,07,14,07,42,15.00
2012,07,14,07,43,15.10
2012,07,14,07,44,15.10
2012,07,14,07,45,15.20
2012,07,14,07,46,15.20
2012,07,14,07,47,15.20
2012,07,14,07,48,15.20
2012,07,14,07,49,15.30
2012,07,14,07,50,15.30
2012,07,14,07,51,15.30
2012,07,14,07,52,15.30
2012,07,14,07,53,15.40
2012,07,14,07,54,15.50
2012,07,14,07,55,15.60
2012,07,14,07,56,15.60
2012,07,14,07,57,15.70
2012,07,14,07,58,15.80
2012,07,14,07,59,15.80
2012,07,14,08,00,15.90
2012,07,14,08,01,16.00
2012,07,14,08,02,16.00
2012,07,14,08,03,16.10
2012,07,14,08,04,16.20
2012,07,14,08,05,16.30
2012,07,14,08,06,16.40
2012,07,14,08,07,16.40
2012,07,14,08,08,16.50
2012,07,14,08,09,16.60
2012,07,14,08,10,16.60
2012,07,14,08,11,16.70
2012,07,14,08,12,16.70
2012,07,14,08,13,16.70
2012,07,14,08,14,16.70
2012,07,14,08,15,16.70
2012,07,14,08,16,16.70
2012,07,14,08,17,16.70
2012,07,14,08,18,16.80
2012,07,14,08,19,16.80
2012,07,14,08,20,16.80
2012,07,14,08,21,16.80
2012,07,14,08,22,16.90
2012,07,14,08,23,16.90
2012,07,14,08,24,16.90
2012,07,14,08,25,16.90
2012,07,14,08,26,16.90
2012,07,14,08,27,16.90
2012,07,14,08,28,16.90
2012,07,14,08,29,16.90
2012,07,14,08,30,17.00
2012,07,14,08,31,17.00
2012,07,14,08,32,17.10
2012,07,14,08,33,17.20
2012,07,14,08,34,17.20
2012,07,14,08,35,17.20
2012,07,14,08,36,17.20
2012,07,14,08,37,17.20
2012,07,14,08,38,17.20
2012,07,14,08,39,17.30
2012,07,14,08,40,17.30
2012,07,14,08,41,17.30
2012,07,14,08,42,17.30
2012,07,14,08,43,17.30
2012,07,14,08,44,17.30
2012,07,14,08,45,17.30
2012,07,14,08,46,17.30
2012,07,14,08,47,17.40
2012,07,14,08,48,17.40
2012,07,14,08,49,17.50
2012,07,14,08,50,17.50
2012,07,14,08,51,17.60
2012,07,14,08,52,17.60
2012,07,14,08,53,17.70
2012,07,14,08,54,17.70
2012,07,14,08,55,17.70
2012,07,14,08,56,17.80
2012,07,14,08,57,17.80
2012,07,14,08,58,17.80
2012,07,14,08,59,17.90
2012,07,14,09,00,17.90
2012,07,14,09,01,18.00
2012,07,14,09,02,18.00
2012,07,14,09,03,18.10
2012,07,14,09,04,18.20
2012,07,14,09,05,18.30
2012,07,14,09,06,18.30
2012,07,14,09,07,18.40
2012,07,14,09,08,18.40
2012,07,14,09,09,18.50
2012,07,14,09,10,18.60
2012,07,14,09,11,18.60
2012,07,14,09,12,18.60
2012,07,14,09,13,18.70
2012,07,14,09,14,18.70
2012,07,14,09,15,18.80
2012,07,14,09,16,18.80
2012,07,14,09,17,18.70
2012,07,14,09,18,18.60
2012,07,14,09,19,18.50
2012,07,14,09,20,18.40
2012,07,14,09,21,18.20
2012,07,14,09,22,18.10
2012,07,14,09,23,17.90
2012,07,14,09,24,17.70
2012,07,14,09,25,17.50
2012,07,14,09,26,17.30
2012,07,14,09,27,17.20
2012,07,14,09,28,17.00
2012,07,14,09,29,16.90
2012,07,14,09,30,16.90
2012,07,14,09,31,16.90
2012,07,14,09,32,16.80
2012,07,14,09,33,16.80
2012,07,14,09,34,16.80
2012,07,14,09,35,16.80
2012,07,14,09,36,16.80
2012,07,14,09,37,16.80
2012,07,14,09,38,16.80
2012,07,14,09,39,16.80
2012,07,14,09,40,16.80
2012,07,14,09,41,16.90
2012,07,14,09,42,16.90
2012,07,14,09,43,16.90
2012,07,14,09,44,16.90
2012,07,14,09,45,17.00
2012,07,14,09,46,17.00
2012,07,14,09,47,17.10
2012,07,14,09,48,17.10
2012,07,14,09,49,17.20
2012,07,14,09,50,17.20
2012,07,14,09,51,17.20
2012,07,14,09,52,17.20
2012,07,14,09,53,17.30
2012,07,14,09,54,17.30
2012,07,14,09,55,17.30
2012,07,14,09,56,17.40
2012,07,14,09,57,17.40
2012,07,14,09,58,17.50
2012,07,14,09,59,17.50
2012,07,14,10,00,17.60
2012,07,14,10,01,17.60
2012,07,14,10,02,17.70
2012,07,14,10,03,17.70
2012,07,14,10,04,17.70
2012,07,14,10,05,17.70
2012,07,14,10,06,17.70
2012,07,14,10,07,17.70
2012,07,14,10,08,17.70
2012,07,14,10,09,17.70
2012,07,14,10,10,17.70
2012,07,14,10,11,17.80
2012,07,14,10,12,17.80
2012,07,14,10,13,17.80
2012,07,14,10,14,17.80
2012,07,14,10,15,17.90
2012,07,14,10,16,17.90
2012,07,14,10,17,17.90
2012,07,14,10,18,17.90
2012,07,14,10,19,18.00
2012,07,14,10,20,18.00
2012,07,14,10,21,18.00
2012,07,14,10,22,18.10
2012,07,14,10,23,18.10
2012,07,14,10,24,18.10
2012,07,14,10,25,18.20
2012,07,14,10,26,18.20
2012,07,14,10,27,18.30
2012,07,14,10,28,18.40
2012,07,14,10,29,18.50
2012,07,14,10,30,18.60
2012,07,14,10,31,18.70
2012,07,14,10,32,18.70
2012,07,14,10,33,18.80
2012,07,14,10,34,18.80
2012,07,14,10,35,18.80
2012,07,14,10,36,18.90
2012,07,14,10,37,18.90
2012,07,14,10,38,18.90
2012,07,14,10,39,18.90
2012,07,14,10,40,19.00
2012,07,14,10,41,19.00
2012,07,14,10,42,19.10
2012,07,14,10,43,19.30
2012,07,14,10,44,19.40
2012,07,14,10,45,19.50
2012,07,14,10,46,19.70
2012,07,14,10,47,19.80
2012,07,14,10,48,20.00
2012,07,14,10,49,20.20
2012,07,14,10,50,20.30
2012,07,14,10,51,20.40
2012,07,14,10,52,20.60
2012,07,14,10,53,20.70
2012,07,14,10,54,20.80
2012,07,14,10,55,20.90
2012,07,14,10,56,21.00
2012,07,14,10,57,21.20
2012,07,14,10,58,21.30
2012,07,14,10,59,21.40
2012,07,14,11,00,21.60
2012,07,14,11,01,21.80
2012,07,14,11,02,21.90
2012,07,14,11,03,22.10
2012,07,14,11,04,22.20
2012,07,14,11,05,22.20
2012,07,14,11,06,22.30
2012,07,14,11,07,22.30
2012,07,14,11,08,22.30
2012,07,14,11,09,22.30
2012,07,14,11,10,22.30
2012,07,14,11,11,22.30
2012,07,14,11,12,22.30
2012,07,14,11,13,22.30
2012,07,14,11,14,22.30
2012,07,14,11,15,22.30
2012,07,14,11,16,22.30
2012,07,14,11,17,22.20
2012,07,14,11,18,22.10
2012,07,14,11,19,22.00
2012,07,14,11,20,22.00
2012,07,14,11,21,21.90
2012,07,14,11,22,21.90
2012,07,14,11,23,21.80
2012,07,14,11,24,21.80
2012,07,14,11,25,21.80
2012,07,14,11,26,21.90
2012,07,14,11,27,22.00
2012,07,14,11,28,22.20
2012,07,14,11,29,22.30
2012,07,14,11,30,22.40
2012,07,14,11,31,22.50
2012,07,14,11,32,22.50
2012,07,14,11,33,22.40
2012,07,14,11,34,22.40
2012,07,14,11,35,22.40
2012,07,14,11,36,22.40
2012,07,14,11,37,22.40
2012,07,14,11,38,22.40
2012,07,14,11,39,22.40
2012,07,14,11,40,22.40
2012,07,14,11,41,22.40
2012,07,14,11,42,22.40
2012,07,14,11,43,22.30
2012,07,14,11,44,22.30
2012,07,14,11,45,22.30
2012,07,14,11,46,22.30
2012,07,14,11,47,22.20
2012,07,14,11,48,22.10
2012,07,14,11,49,22.10
2012,07,14,11,50,22.00
2012,07,14,11,51,21.90
2012,07,14,11,52,21.90
2012,07,14,11,53,21.80
2012,07,14,11,54,21.70
2012,07,14,11,55,21.60
2012,07,14,11,56,21.50
2012,07,14,11,57,21.30
2012,07,14,11,58,21.20
2012,07,14,11,59,21.10
2012,07,14,12,00,21.00
2012,07,14,12,01,20.90
2012,07,14,12,02,20.80
2012,07,14,12,03,20.70
2012,07,14,12,04,20.60
2012,07,14,12,05,20.60
2012,07,14,12,06,20.60
2012,07,14,12,07,20.50
2012,07,14,12,08,20.50
2012,07,14,12,09,20.50
2012,07,14,12,10,20.40
2012,07,14,12,11,20.40
2012,07,14,12,12,20.40
2012,07,14,12,13,20.40
2012,07,14,12,14,20.40
2012,07,14,12,15,20.30
2012,07,14,12,16,20.30
2012,07,14,12,17,20.20
2012,07,14,12,18,20.20
2012,07,14,12,19,20.10
2012,07,14,12,20,20.10
2012,07,14,12,21,20.00
2012,07,14,12,22,20.00
2012,07,14,12,23,19.90
2012,07,14,12,24,19.90
2012,07,14,12,25,19.90
2012,07,14,12,26,19.90
2012,07,14,12,27,19.80
2012,07,14,12,28,19.80
2012,07,14,12,29,19.80
2012,07,14,12,30,19.70
2012,07,14,12,31,19.70
2012,07,14,12,32,19.70
2012,07,14,12,33,19.70
2012,07,14,12,34,19.60
2012,07,14,12,35,19.60
2012,07,14,12,36,19.40
2012,07,14,12,37,19.30
2012,07,14,12,38,19.20
2012,07,14,12,39,19.10
2012,07,14,12,40,19.00
2012,07,14,12,41,18.90
2012,07,14,12,42,18.80
2012,07,14,12,43,18.80
2012,07,14,12,44,18.70
2012,07,14,12,45,18.70
2012,07,14,12,46,18.60
2012,07,14,12,47,18.60
2012,07,14,12,48,18.50
2012,07,14,12,49,18.50
2012,07,14,12,50,18.40
2012,07,14,12,51,18.40
2012,07,14,12,52,18.40
2012,07,14,12,53,18.30
2012,07,14,12,54,18.30
2012,07,14,12,55,18.30
2012,07,14,12,56,18.20
2012,07,14,12,57,18.20
2012,07,14,12,58,18.20
2012,07,14,12,59,18.20
2012,07,14,13,00,18.20
2012,07,14,13,01,18.30
2012,07,14,13,02,18.30
2012,07,14,13,03,18.30
2012,07,14,13,04,18.30
2012,07,14,13,05,18.30
2012,07,14,13,06,18.30
2012,07,14,13,07,18.40
2012,07,14,13,08,18.50
2012,07,14,13,09,18.60
2012,07,14,13,10,18.70
2012,07,14,13,11,18.80
2012,07,14,13,12,18.80
2012,07,14,13,13,18.90
2012,07,14,13,14,19.00
2012,07,14,13,15,19.10
2012,07,14,13,16,19.30
2012,07,14,13,17,19.40
2012,07,14,13,18,19.50
2012,07,14,13,19,19.50
2012,07,14,13,20,19.50
2012,07,14,13,21,19.50
2012,07,14,13,22,19.50
2012,07,14,13,23,19.60
2012,07,14,13,24,19.60
2012,07,14,13,25,19.60
2012,07,14,13,26,19.70
2012,07,14,13,27,19.70
2012,07,14,13,28,19.80
2012,07,14,13,29,19.90
2012,07,14,13,30,19.90
2012,07,14,13,31,19.90
2012,07,14,13,32,19.90
2012,07,14,13,33,20.00
2012,07,14,13,34,20.00
2012,07,14,13,35,20.10
2012,07,14,13,36,20.10
2012,07,14,13,37,20.20
2012,07,14,13,38,20.20
2012,07,14,13,39,20.30
2012,07,14,13,40,20.30
2012,07,14,13,41,20.40
2012,07,14,13,42,20.40
2012,07,14,13,43,20.40
2012,07,14,13,44,20.40
2012,07,14,13,45,20.40
2012,07,14,13,46,20.40
2012,07,14,13,47,20.40
2012,07,14,13,48,20.40
2012,07,14,13,49,20.40
2012,07,14,13,50,20.50
2012,07,14,13,51,20.60
2012,07,14,13,52,20.70
2012,07,14,13,53,20.80
2012,07,14,13,54,20.80
2012,07,14,13,55,20.90
2012,07,14,13,56,20.90
2012,07,14,13,57,20.90
2012,07,14,13,58,20.90
2012,07,14,13,59,20.90
2012,07,14,14,00,20.90
2012,07,14,14,01,20.80
2012,07,14,14,02,20.80
2012,07,14,14,03,20.80
2012,07,14,14,04,20.80
2012,07,14,14,05,20.80
2012,07,14,14,06,20.80
2012,07,14,14,07,20.80
2012,07,14,14,08,20.80
2012,07,14,14,09,20.90
2012,07,14,14,10,20.90
2012,07,14,14,11,20.90
2012,07,14,14,12,20.90
2012,07,14,14,13,20.80
2012,07,14,14,14,20.80
2012,07,14,14,15,20.90
2012,07,14,14,16,20.90
2012,07,14,14,17,20.90
2012,07,14,14,18,20.90
2012,07,14,14,19,20.90
2012,07,14,14,20,21.00
2012,07,14,14,21,21.10
2012,07,14,14,22,21.10
2012,07,14,14,23,21.10
2012,07,14,14,24,21.00
2012,07,14,14,25,20.90
2012,07,14,14,26,20.90
2012,07,14,14,27,20.90
2012,07,14,14,28,20.90
2012,07,14,14,29,20.90
2012,07,14,14,30,20.80
2012,07,14,14,31,20.70
2012,07,14,14,32,20.70
2012,07,14,14,33,20.70
2012,07,14,14,34,20.60
2012,07,14,14,35,20.60
2012,07,14,14,36,20.60
2012,07,14,14,37,20.60
2012,07,14,14,38,20.60
2012,07,14,14,39,20.60
2012,07,14,14,40,20.60
2012,07,14,14,41,20.60
2012,07,14,14,42,20.60
2012,07,14,14,43,20.60
2012,07,14,14,44,20.60
2012,07,14,14,45,20.60
2012,07,14,14,46,20.60
2012,07,14,14,47,20.60
2012,07,14,14,48,20.60
2012,07,14,14,49,20.60
2012,07,14,14,50,20.70
2012,07,14,14,51,20.70
2012,07,14,14,52,20.60
2012,07,14,14,53,20.60
2012,07,14,14,54,20.70
2012,07,14,14,55,20.70
2012,07,14,14,56,20.70
2012,07,14,14,57,20.70
2012,07,14,14,58,20.70
2012,07,14,14,59,20.70
2012,07,14,15,00,20.70
2012,07,14,15,01,20.70
2012,07,14,15,02,20.70
2012,07,14,15,03,20.70
2012,07,14,15,04,20.60
2012,07,14,15,05,20.60
2012,07,14,15,06,20.60
2012,07,14,15,07,20.70
2012,07,14,15,08,20.70
2012,07,14,15,09,20.70
2012,07,14,15,10,20.70
2012,07,14,15,11,20.60
2012,07,14,15,12,20.60
2012,07,14,15,13,20.60
2012,07,14,15,14,20.50
2012,07,14,15,15,20.40
2012,07,14,15,16,20.40
2012,07,14,15,17,20.30
2012,07,14,15,18,20.30
2012,07,14,15,19,20.30
2012,07,14,15,20,20.40
2012,07,14,15,21,20.40
2012,07,14,15,22,20.40
2012,07,14,15,23,20.50
2012,07,14,15,24,20.60
2012,07,14,15,25,20.60
2012,07,14,15,26,20.60
2012,07,14,15,27,20.60
2012,07,14,15,28,20.60
2012,07,14,15,29,20.60
2012,07,14,15,30,20.60
2012,07,14,15,31,20.60
2012,07,14,15,32,20.60
2012,07,14,15,33,20.60
2012,07,14,15,34,20.60
2012,07,14,15,35,20.70
2012,07,14,15,36,20.70
2012,07,14,15,37,20.70
2012,07,14,15,38,20.80
2012,07,14,15,39,20.80
2012,07,14,15,40,20.80
2012,07,14,15,41,20.80
2012,07,14,15,42,20.90
2012,07,14,15,43,21.00
2012,07,14,15,44,21.00
2012,07,14,15,45,21.10
2012,07,14,15,46,21.10
2012,07,14,15,47,21.20
2012,07,14,15,48,21.20
2012,07,14,15,49,21.30
2012,07,14,15,50,21.30
2012,07,14,15,51,21.40
2012,07,14,15,52,21.40
2012,07,14,15,53,21.50
2012,07,14,15,54,21.60
2012,07,14,15,55,21.60
2012,07,14,15,56,21.70
2012,07,14,15,57,21.80
2012,07,14,15,58,21.80
2012,07,14,15,59,21.80
2012,07,14,16,00,21.90
2012,07,14,16,01,21.90
2012,07,14,16,02,21.90
2012,07,14,16,03,21.80
2012,07,14,16,04,21.70
2012,07,14,16,05,21.60
2012,07,14,16,06,21.60
2012,07,14,16,07,21.50
2012,07,14,16,08,21.50
2012,07,14,16,09,21.40
2012,07,14,16,10,21.40
2012,07,14,16,11,21.40
2012,07,14,16,12,21.40
2012,07,14,16,13,21.40
2012,07,14,16,14,21.40
2012,07,14,16,15,21.40
2012,07,14,16,16,21.40
2012,07,14,16,17,21.30
2012,07,14,16,18,21.30
2012,07,14,16,19,21.30
2012,07,14,16,20,21.30
2012,07,14,16,21,21.30
2012,07,14,16,22,21.30
2012,07,14,16,23,21.30
2012,07,14,16,24,21.30
2012,07,14,16,25,21.30
2012,07,14,16,26,21.30
2012,07,14,16,27,21.30
2012,07,14,16,28,21.20
2012,07,14,16,29,21.20
2012,07,14,16,30,21.10
2012,07,14,16,31,21.00
2012,07,14,16,32,20.90
2012,07,14,16,33,20.70
2012,07,14,16,34,20.60
2012,07,14,16,35,20.50
2012,07,14,16,36,20.50
2012,07,14,16,37,20.50
2012,07,14,16,38,20.40
2012,07,14,16,39,20.40
2012,07,14,16,40,20.40
2012,07,14,16,41,20.30
2012,07,14,16,42,20.30
2012,07,14,16,43,20.30
2012,07,14,16,44,20.30
2012,07,14,16,45,20.20
2012,07,14,16,46,20.10
2012,07,14,16,47,20.00
2012,07,14,16,48,19.90
2012,07,14,16,49,19.70
2012,07,14,16,50,19.60
2012,07,14,16,51,19.50
2012,07,14,16,52,19.30
2012,07,14,16,53,19.10
2012,07,14,16,54,18.80
2012,07,14,16,55,18.60
2012,07,14,16,56,18.50
2012,07,14,16,57,18.40
2012,07,14,16,58,18.30
2012,07,14,16,59,18.30
2012,07,14,17,00,18.30
2012,07,14,17,01,18.30
2012,07,14,17,02,18.20
2012,07,14,17,03,18.20
2012,07,14,17,04,18.20
2012,07,14,17,05,18.20
2012,07,14,17,06,18.20
2012,07,14,17,07,18.30
2012,07,14,17,08,18.40
2012,07,14,17,09,18.50
2012,07,14,17,10,18.60
2012,07,14,17,11,18.70
2012,07,14,17,12,18.80
2012,07,14,17,13,18.80
2012,07,14,17,14,18.80
2012,07,14,17,15,18.80
2012,07,14,17,16,18.80
2012,07,14,17,17,18.80
2012,07,14,17,18,18.80
2012,07,14,17,19,18.80
2012,07,14,17,20,18.80
2012,07,14,17,21,18.80
2012,07,14,17,22,18.80
2012,07,14,17,23,18.80
2012,07,14,17,24,18.80
2012,07,14,17,25,18.70
2012,07,14,17,26,18.70
2012,07,14,17,27,18.70
2012,07,14,17,28,18.70
2012,07,14,17,29,18.70
2012,07,14,17,30,18.70
2012,07,14,17,31,18.70
2012,07,14,17,32,18.70
2012,07,14,17,33,18.80
2012,07,14,17,34,18.90
2012,07,14,17,35,18.90
2012,07,14,17,36,19.00
2012,07,14,17,37,19.10
2012,07,14,17,38,19.10
2012,07,14,17,39,19.10
2012,07,14,17,40,19.00
2012,07,14,17,41,19.00
2012,07,14,17,42,18.90
2012,07,14,17,43,18.90
2012,07,14,17,44,18.90
2012,07,14,17,45,18.90
2012,07,14,17,46,18.80
2012,07,14,17,47,18.70
2012,07,14,17,48,18.60
2012,07,14,17,49,18.40
2012,07,14,17,50,18.20
2012,07,14,17,51,18.10
2012,07,14,17,52,18.00
2012,07,14,17,53,18.00
2012,07,14,17,54,18.00
2012,07,14,17,55,18.00
2012,07,14,17,56,18.10
2012,07,14,17,57,18.20
2012,07,14,17,58,18.10
2012,07,14,17,59,18.10
2012,07,14,18,00,18.00
2012,07,14,18,01,18.00
2012,07,14,18,02,17.90
2012,07,14,18,03,17.80
2012,07,14,18,04,17.80
2012,07,14,18,05,17.70
2012,07,14,18,06,17.70
2012,07,14,18,07,17.60
2012,07,14,18,08,17.60
2012,07,14,18,09,17.60
2012,07,14,18,10,17.50
2012,07,14,18,11,17.50
2012,07,14,18,12,17.40
2012,07,14,18,13,17.40
2012,07,14,18,14,17.40
2012,07,14,18,15,17.40
2012,07,14,18,16,17.40
2012,07,14,18,17,17.40
2012,07,14,18,18,17.40
2012,07,14,18,19,17.40
2012,07,14,18,20,17.40
2012,07,14,18,21,17.40
2012,07,14,18,22,17.40
2012,07,14,18,23,17.40
2012,07,14,18,24,17.50
2012,07,14,18,25,17.50
2012,07,14,18,26,17.60
2012,07,14,18,27,17.60
2012,07,14,18,28,17.60
2012,07,14,18,29,17.60
2012,07,14,18,30,17.60
2012,07,14,18,31,17.60
2012,07,14,18,32,17.60
2012,07,14,18,33,17.60
2012,07,14,18,34,17.60
2012,07,14,18,35,17.70
2012,07,14,18,36,17.70
2012,07,14,18,37,17.80
2012,07,14,18,38,17.80
2012,07,14,18,39,17.90
2012,07,14,18,40,18.00
2012,07,14,18,41,18.00
2012,07,14,18,42,18.10
2012,07,14,18,43,18.20
2012,07,14,18,44,18.20
2012,07,14,18,45,18.20
2012,07,14,18,46,18.30
2012,07,14,18,47,18.30
2012,07,14,18,48,18.40
2012,07,14,18,49,18.40
2012,07,14,18,50,18.40
2012,07,14,18,51,18.30
2012,07,14,18,52,18.30
2012,07,14,18,53,18.20
2012,07,14,18,54,18.10
2012,07,14,18,55,17.90
2012,07,14,18,56,17.70
2012,07,14,18,57,17.50
2012,07,14,18,58,17.30
2012,07,14,18,59,17.20
2012,07,14,19,00,17.10
2012,07,14,19,01,17.00
2012,07,14,19,02,17.00
2012,07,14,19,03,16.90
2012,07,14,19,04,16.90
2012,07,14,19,05,16.80
2012,07,14,19,06,16.70
2012,07,14,19,07,16.70
2012,07,14,19,08,16.60
2012,07,14,19,09,16.50
2012,07,14,19,10,16.40
2012,07,14,19,11,16.40
2012,07,14,19,12,16.30
2012,07,14,19,13,16.20
2012,07,14,19,14,16.20
2012,07,14,19,15,16.20
2012,07,14,19,16,16.10
2012,07,14,19,17,16.10
2012,07,14,19,18,16.10
2012,07,14,19,19,16.00
2012,07,14,19,20,16.00
2012,07,14,19,21,16.00
2012,07,14,19,22,16.00
2012,07,14,19,23,16.00
2012,07,14,19,24,15.90
2012,07,14,19,25,15.90
2012,07,14,19,26,15.90
2012,07,14,19,27,15.80
2012,07,14,19,28,15.80
2012,07,14,19,29,15.80
2012,07,14,19,30,15.70
2012,07,14,19,31,15.70
2012,07,14,19,32,15.60
2012,07,14,19,33,15.60
2012,07,14,19,34,15.50
2012,07,14,19,35,15.50
2012,07,14,19,36,15.50
2012,07,14,19,37,15.40
2012,07,14,19,38,15.40
2012,07,14,19,39,15.40
2012,07,14,19,40,15.40
2012,07,14,19,41,15.30
2012,07,14,19,42,15.20
2012,07,14,19,43,15.10
2012,07,14,19,44,15.10
2012,07,14,19,45,15.00
2012,07,14,19,46,14.90
2012,07,14,19,47,14.90
2012,07,14,19,48,14.90
2012,07,14,19,49,14.90
2012,07,14,19,50,14.90
2012,07,14,19,51,14.90
2012,07,14,19,52,14.90
2012,07,14,19,53,14.90
2012,07,14,19,54,14.90
2012,07,14,19,55,14.90
2012,07,14,19,56,15.00
2012,07,14,19,57,15.00
2012,07,14,19,58,15.10
2012,07,14,19,59,15.10
2012,07,14,20,00,15.20
2012,07,14,20,01,15.20
2012,07,14,20,02,15.20
2012,07,14,20,03,15.30
2012,07,14,20,04,15.30
2012,07,14,20,05,15.30
2012,07,14,20,06,15.40
2012,07,14,20,07,15.40
2012,07,14,20,08,15.50
2012,07,14,20,09,15.50
2012,07,14,20,10,15.60
2012,07,14,20,11,15.60
2012,07,14,20,12,15.60
2012,07,14,20,13,15.60
2012,07,14,20,14,15.70
2012,07,14,20,15,15.70
2012,07,14,20,16,15.70
2012,07,14,20,17,15.70
2012,07,14,20,18,15.80
2012,07,14,20,19,15.80
2012,07,14,20,20,15.80
2012,07,14,20,21,15.80
2012,07,14,20,22,15.70
2012,07,14,20,23,15.70
2012,07,14,20,24,15.70
2012,07,14,20,25,15.60
2012,07,14,20,26,15.60
2012,07,14,20,27,15.50
2012,07,14,20,28,15.50
2012,07,14,20,29,15.50
2012,07,14,20,30,15.40
2012,07,14,20,31,15.40
2012,07,14,20,32,15.40
2012,07,14,20,33,15.40
2012,07,14,20,34,15.40
2012,07,14,20,35,15.40
2012,07,14,20,36,15.40
2012,07,14,20,37,15.40
2012,07,14,20,38,15.50
2012,07,14,20,39,15.50
2012,07,14,20,40,15.50
2012,07,14,20,41,15.60
2012,07,14,20,42,15.60
2012,07,14,20,43,15.60
2012,07,14,20,44,15.60
2012,07,14,20,45,15.60
2012,07,14,20,46,15.60
2012,07,14,20,47,15.60
2012,07,14,20,48,15.60
2012,07,14,20,49,15.70
2012,07,14,20,50,15.70
2012,07,14,20,51,15.70
2012,07,14,20,52,15.80
2012,07,14,20,53,15.80
2012,07,14,20,54,15.80
2012,07,14,20,55,15.90
2012,07,14,20,56,15.90
2012,07,14,20,57,15.90
2012,07,14,20,58,15.90
2012,07,14,20,59,15.90
2012,07,14,21,00,15.90
2012,07,14,21,01,15.90
2012,07,14,21,02,15.90
2012,07,14,21,03,15.90
2012,07,14,21,04,16.00
2012,07,14,21,05,16.00
2012,07,14,21,06,16.00
2012,07,14,21,07,16.00
2012,07,14,21,08,16.00
2012,07,14,21,09,16.00
2012,07,14,21,10,16.00
2012,07,14,21,11,16.00
2012,07,14,21,12,16.10
2012,07,14,21,13,16.10
2012,07,14,21,14,16.10
2012,07,14,21,15,16.10
2012,07,14,21,16,16.10
2012,07,14,21,17,16.10
2012,07,14,21,18,16.10
2012,07,14,21,19,16.10
2012,07,14,21,20,16.20
2012,07,14,21,21,16.20
2012,07,14,21,22,16.20
2012,07,14,21,23,16.20
2012,07,14,21,24,16.30
2012,07,14,21,25,16.30
2012,07,14,21,26,16.30
2012,07,14,21,27,16.40
2012,07,14,21,28,16.40
2012,07,14,21,29,16.50
2012,07,14,21,30,16.50
2012,07,14,21,31,16.60
2012,07,14,21,32,16.60
2012,07,14,21,33,16.60
2012,07,14,21,34,16.70
2012,07,14,21,35,16.70
2012,07,14,21,36,16.80
2012,07,14,21,37,16.80
2012,07,14,21,38,16.80
2012,07,14,21,39,16.90
2012,07,14,21,40,16.90
2012,07,14,21,41,16.90
2012,07,14,21,42,17.00
2012,07,14,21,43,17.00
2012,07,14,21,44,17.00
2012,07,14,21,45,17.10
2012,07,14,21,46,17.10
2012,07,14,21,47,17.10
2012,07,14,21,48,17.20
2012,07,14,21,49,17.20
2012,07,14,21,50,17.30
2012,07,14,21,51,17.30
2012,07,14,21,52,17.40
2012,07,14,21,53,17.40
2012,07,14,21,54,17.50
2012,07,14,21,55,17.60
2012,07,14,21,56,17.60
2012,07,14,21,57,17.70
2012,07,14,21,58,17.70
2012,07,14,21,59,17.70
2012,07,14,22,00,17.80
2012,07,14,22,01,17.80
2012,07,14,22,02,17.90
2012,07,14,22,03,17.90
2012,07,14,22,04,17.90
2012,07,14,22,05,18.00
2012,07,14,22,06,18.00
2012,07,14,22,07,18.00
2012,07,14,22,08,18.00
2012,07,14,22,09,18.10
2012,07,14,22,10,18.00
2012,07,14,22,11,18.00
2012,07,14,22,12,18.00
2012,07,14,22,13,18.00
2012,07,14,22,14,17.90
2012,07,14,22,15,17.90
2012,07,14,22,16,17.90
2012,07,14,22,17,17.80
2012,07,14,22,18,17.80
2012,07,14,22,19,17.80
2012,07,14,22,20,17.80
2012,07,14,22,21,17.80
2012,07,14,22,22,17.70
2012,07,14,22,23,17.70
2012,07,14,22,24,17.70
2012,07,14,22,25,17.60
2012,07,14,22,26,17.60
2012,07,14,22,27,17.60
2012,07,14,22,28,17.60
2012,07,14,22,29,17.60
2012,07,14,22,30,17.60
2012,07,14,22,31,17.60
2012,07,14,22,32,17.60
2012,07,14,22,33,17.50
2012,07,14,22,34,17.50
2012,07,14,22,35,17.50
2012,07,14,22,36,17.50
2012,07,14,22,37,17.50
2012,07,14,22,38,17.40
2012,07,14,22,39,17.50
2012,07,14,22,40,17.40
2012,07,14,22,41,17.50
2012,07,14,22,42,17.50
2012,07,14,22,43,17.50
2012,07,14,22,44,17.50
2012,07,14,22,45,17.50
2012,07,14,22,46,17.50
2012,07,14,22,47,17.50
2012,07,14,22,48,17.50
2012,07,14,22,49,17.50
2012,07,14,22,50,17.50
2012,07,14,22,51,17.50
2012,07,14,22,52,17.40
2012,07,14,22,53,17.40
2012,07,14,22,54,17.40
2012,07,14,22,55,17.40
2012,07,14,22,56,17.40
2012,07,14,22,57,17.40
2012,07,14,22,58,17.40
2012,07,14,22,59,17.30
2012,07,14,23,00,17.30
2012,07,14,23,01,17.30
2012,07,14,23,02,17.30
2012,07,14,23,03,17.30
2012,07,14,23,04,17.30
2012,07,14,23,05,17.30
2012,07,14,23,06,17.30
2012,07,14,23,07,17.30
2012,07,14,23,08,17.30
2012,07,14,23,09,17.30
2012,07,14,23,10,17.30
2012,07,14,23,11,17.30
2012,07,14,23,12,17.30
2012,07,14,23,13,17.30
2012,07,14,23,14,17.30
2012,07,14,23,15,17.30
2012,07,14,23,16,17.30
2012,07,14,23,17,17.30
2012,07,14,23,18,17.20
2012,07,14,23,19,17.20
2012,07,14,23,20,17.20
2012,07,14,23,21,17.10
2012,07,14,23,22,17.10
2012,07,14,23,23,17.00
2012,07,14,23,24,16.90
2012,07,14,23,25,16.90
2012,07,14,23,26,16.80
2012,07,14,23,27,16.80
2012,07,14,23,28,16.80
2012,07,14,23,29,16.80
2012,07,14,23,30,16.70
2012,07,14,23,31,16.70
2012,07,14,23,32,16.70
2012,07,14,23,33,16.70
2012,07,14,23,34,16.70
2012,07,14,23,35,16.70
2012,07,14,23,36,16.70
2012,07,14,23,37,16.70
2012,07,14,23,38,16.70
2012,07,14,23,39,16.70
2012,07,14,23,40,16.70
2012,07,14,23,41,16.70
2012,07,14,23,42,16.70
2012,07,14,23,43,16.70
2012,07,14,23,44,16.70
2012,07,14,23,45,16.70
2012,07,14,23,46,16.70
2012,07,14,23,47,16.70
2012,07,14,23,48,16.70
2012,07,14,23,49,16.70
2012,07,14,23,50,16.70
2012,07,14,23,51,16.70
2012,07,14,23,52,16.70
2012,07,14,23,53,16.70
2012,07,14,23,54,16.70
2012,07,14,23,55,16.70
2012,07,14,23,56,16.70
